Regional Weather Roundup
Issued by NWS

Home | Current Version | Previous Version | Text Only | Print | Product List | Glossary On
Versions: 1 2 3 4 5 6 7 8 9 10 11 12 13 14 15 16 17 18 19 20 21 22 23 24 25 26 27
000
ASUS44 KLIX 270811
RWRLA
LOUISIANA WEATHER ROUNDUP
NATIONAL WEATHER SERVICE NEW ORLEANS LA
300 AM CDT SAT AUG 27 2016

NOTE: "FAIR" INDICATES FEW OR NO CLOUDS BELOW 12,000 FEET WITH NO
      SIGNIFICANT WEATHER AND/OR OBSTRUCTIONS TO VISIBILITY.
      SKY/WX - SKY CONDITION AND SIGNIFICANT WEATHER.
      TMP - AIR TEMPERATURE.    DP   - DEWPOINT TEMPERATURE.
      RH  - RELATIVE HUMIDITY.  PRES - PRESSURE.
      HX  - HEAT INDEX.         WCI  - WIND CHILL INDEX.

*  THESE STATIONS ARE NOT NWS OR FAA STATIONS AND ARE NOT UNDER
   NWS QUALITY CONTROL.

LAZ040-048-061>063-065-066-069-270900-
SOUTHEAST LOUISIANA

CITY           SKY/WX    TMP DP  RH WIND       PRES   REMARKS
N.O. AUDUBON     N/A     82  76  83 MISG        N/A
N.O. INTL ARPT PTCLDY    82  76  81 NE6       29.95F
N.O. LAKEFRONT CLEAR     83  76  79 NE8       29.96F
N.O. DOWNTOWN* FAIR      82  77  84 NE6       29.96F
RESERVE*       FAIR      79  76  93 CALM      29.96F
SLIDELL        PTCLDY    76  75  97 CALM      29.97S
BATON ROUGE    CLEAR     76  74  93 NE3       29.97F
BOOTHVILLE     CLOUDY    80  76  87 S3        29.96F
BELLE CHASSE   NOT AVBL
BOGALUSA*      FAIR      75  71  88 CALM      30.00F
GALLIANO*      CLOUDY   N/A N/A N/A CALM      29.95S
NEW ROADS*     FAIR      74  74  97 CALM      29.97S
GONZALES*      PTSUNNY   75  75 100 CALM      29.96R
HAMMOND*       CLEAR     77  72  83 E3        29.97F
HOUMA*         PTCLDY    75  75  98 CALM      29.95S
PORT FOURCHON* PTSUNNY   82  75  78 E8        29.94S

$$

LAZ041-044-053-054-270900-
SOUTHWEST LOUISIANA

CITY           SKY/WX    TMP DP  RH WIND       PRES   REMARKS
LAKE CHARLES   CLOUDY    77  74  90 N5        29.95F
LAFAYETTE      CLOUDY    79  76  90 CALM      29.96S
PATTERSON      PTCLDY    76  75  97 N3        29.96S
SALT POINT       N/A     77  75  93 CALM      29.93F
NEW IBERIA     PTCLDY    79  74  84 E5        29.96F
CHENAULT AIRPK CLOUDY    76  71  84 CALM      29.96S

$$

LAZ027-028-270900-
CENTRAL LOUISIANA

CITY           SKY/WX    TMP DP  RH WIND       PRES   REMARKS
FORT POLK      CLOUDY    77  73  90 E3        29.96F
ALEXANDRIA INT MOCLDY    75  74  96 CALM      29.96S
ALEXANDRIA     FOG       73  73 100 CALM      29.97F VSB 3/4

$$

LAZ001-002-270900-
NORTHWEST LOUISIANA

CITY           SKY/WX    TMP DP  RH WIND       PRES   REMARKS
SHREVEPORT     PTCLDY    75  74  96 CALM      29.98R
BARKSDALE AFB  PTCLDY    75  75 100 SE2       29.97S
DTN SHREVEPORT PTCLDY    75  74  96 CALM      29.98S

$$

LAZ014-016-270900-
NORTHEAST LOUISIANA

CITY           SKY/WX    TMP DP  RH WIND       PRES   REMARKS
MONROE         CLEAR     73  73 100 CALM      29.99F
TALLULAH       CLEAR     73  71  93 CALM      29.99S FOG

$$





USA.gov is the U.S. government's official web portal to all federal, state and local government web resources and services.